Time,TemperatureF,DewpointF,PressureIn,WindDirection,WindDirectionDegrees,WindSpeedMPH,WindSpeedGustMPH,Humidity,HourlyPrecipIn,Conditions,Clouds,dailyrainin,SoftwareType,DateUTC
2013-03-21 00:03:00,46.0,17.0,-100.00,WNW,290,9.0,11.0,31,-99.99,,,-99.99,,2013-03-21 04:03:00,
2013-03-21 00:13:00,45.0,17.0,-100.00,WNW,300,9.0,14.0,31,-99.99,,,-99.99,,2013-03-21 04:13:00,
2013-03-21 00:23:00,45.0,18.0,-100.00,NW,310,8.0,16.0,33,-99.99,,,-99.99,,2013-03-21 04:23:00,
2013-03-21 00:33:00,44.0,20.0,-100.00,WNW,290,14.0,28.0,38,-99.99,,,-99.99,,2013-03-21 04:33:00,
2013-03-21 00:43:00,44.0,22.0,-100.00,WNW,300,14.0,21.0,42,-99.99,,,-99.99,,2013-03-21 04:43:00,
2013-03-21 00:53:00,43.0,24.0,-100.00,WNW,300,10.0,19.0,47,-99.99,,,-99.99,,2013-03-21 04:53:00,
2013-03-21 01:03:00,43.0,26.0,-100.00,WNW,285,11.0,21.0,50,-99.99,,,-99.99,,2013-03-21 05:03:00,
2013-03-21 01:13:00,43.0,27.0,-100.00,WNW,295,11.0,21.0,54,-99.99,,,-99.99,,2013-03-21 05:13:00,
2013-03-21 01:22:00,42.0,28.0,-100.00,WNW,295,11.0,18.0,56,-99.99,,,-99.99,,2013-03-21 05:22:00,
2013-03-21 01:33:00,42.0,28.0,-100.00,NW,305,16.0,24.0,56,-99.99,,,-99.99,,2013-03-21 05:33:00,
2013-03-21 01:44:00,42.0,27.0,-100.00,WNW,295,12.0,24.0,56,-99.99,,,-99.99,,2013-03-21 05:44:00,
2013-03-21 01:52:00,41.0,27.0,-100.00,NW,305,10.0,22.0,56,-99.99,,,-99.99,,2013-03-21 05:52:00,
2013-03-21 02:03:00,41.0,26.0,-100.00,WNW,290,13.0,24.0,55,-99.99,,,-99.99,,2013-03-21 06:03:00,
2013-03-21 02:12:00,40.0,26.0,-100.00,West,275,9.0,18.0,55,-99.99,,,-99.99,,2013-03-21 06:12:00,
2013-03-21 02:22:00,41.0,24.0,-100.00,WNW,295,11.0,18.0,52,-99.99,,,-99.99,,2013-03-21 06:22:00,
2013-03-21 02:32:00,41.0,24.0,-100.00,WNW,295,11.0,18.0,52,-99.99,,,-99.99,,2013-03-21 06:32:00,
2013-03-21 02:42:00,40.0,23.0,-100.00,WNW,295,10.0,19.0,51,-99.99,,,-99.99,,2013-03-21 06:42:00,
2013-03-21 02:52:00,39.0,23.0,-100.00,West,275,7.0,14.0,51,-99.99,,,-99.99,,2013-03-21 06:52:00,
2013-03-21 03:02:00,39.0,22.0,-100.00,West,280,7.0,14.0,51,-99.99,,,-99.99,,2013-03-21 07:02:00,
2013-03-21 03:13:00,39.0,21.0,-100.00,NW,305,8.0,18.0,49,-99.99,,,-99.99,,2013-03-21 07:13:00,
2013-03-21 03:22:00,39.0,21.0,-100.00,West,280,12.0,19.0,48,-99.99,,,-99.99,,2013-03-21 07:22:00,
2013-03-21 03:32:00,39.0,20.0,-100.00,WNW,285,13.0,19.0,47,-99.99,,,-99.99,,2013-03-21 07:32:00,
2013-03-21 03:42:00,38.0,20.0,-100.00,West,270,11.0,16.0,47,-99.99,,,-99.99,,2013-03-21 07:42:00,
2013-03-21 03:52:00,38.0,20.0,-100.00,West,280,14.0,20.0,47,-99.99,,,-99.99,,2013-03-21 07:52:00,
2013-03-21 04:02:00,38.0,20.0,-100.00,West,270,13.0,24.0,47,-99.99,,,-99.99,,2013-03-21 08:02:00,
2013-03-21 04:13:00,38.0,20.0,-100.00,West,275,14.0,20.0,47,-99.99,,,-99.99,,2013-03-21 08:13:00,
2013-03-21 04:23:00,38.0,20.0,-100.00,WNW,285,11.0,19.0,47,-99.99,,,-99.99,,2013-03-21 08:23:00,
2013-03-21 04:33:00,38.0,19.0,-100.00,West,270,11.0,19.0,47,-99.99,,,-99.99,,2013-03-21 08:33:00,
2013-03-21 04:42:00,37.0,19.0,-100.00,WNW,285,11.0,16.0,46,-99.99,,,-99.99,,2013-03-21 08:42:00,
2013-03-21 04:52:00,37.0,18.0,-100.00,West,270,10.0,16.0,46,-99.99,,,-99.99,,2013-03-21 08:52:00,
2013-03-21 05:02:00,37.0,19.0,-100.00,West,280,15.0,21.0,46,-99.99,,,-99.99,,2013-03-21 09:02:00,
2013-03-21 05:11:00,37.0,17.0,-100.00,WNW,285,11.0,21.0,45,-99.99,,,-99.99,,2013-03-21 09:11:00,
2013-03-21 05:22:00,37.0,17.0,-100.00,West,280,12.0,18.0,45,-99.99,,,-99.99,,2013-03-21 09:22:00,
2013-03-21 05:33:00,36.0,17.0,-100.00,West,265,7.0,17.0,45,-99.99,,,-99.99,,2013-03-21 09:33:00,
2013-03-21 05:43:00,36.0,17.0,-100.00,West,265,8.0,17.0,45,-99.99,,,-99.99,,2013-03-21 09:43:00,
2013-03-21 05:53:00,36.0,16.0,-100.00,West,280,13.0,20.0,43,-99.99,,,-99.99,,2013-03-21 09:53:00,
2013-03-21 06:03:00,36.0,15.0,-100.00,West,280,11.0,23.0,42,-99.99,,,-99.99,,2013-03-21 10:03:00,
2013-03-21 06:12:00,36.0,14.0,-100.00,WNW,285,10.0,18.0,41,-99.99,,,-99.99,,2013-03-21 10:12:00,
2013-03-21 06:23:00,35.0,14.0,-100.00,West,270,8.0,16.0,41,-99.99,,,-99.99,,2013-03-21 10:23:00,
2013-03-21 06:34:00,35.0,13.0,-100.00,West,270,6.0,11.0,41,-99.99,,,-99.99,,2013-03-21 10:34:00,
2013-03-21 06:42:00,34.0,13.0,-100.00,WSW,250,6.0,9.0,42,-99.99,,,-99.99,,2013-03-21 10:42:00,
2013-03-21 06:53:00,34.0,14.0,-100.00,West,265,8.0,13.0,43,-99.99,,,-99.99,,2013-03-21 10:53:00,
2013-03-21 07:03:00,34.0,14.0,-100.00,West,270,11.0,14.0,43,-99.99,,,-99.99,,2013-03-21 11:03:00,
2013-03-21 07:13:00,34.0,14.0,-100.00,West,270,10.0,16.0,43,-99.99,,,-99.99,,2013-03-21 11:13:00,
2013-03-21 07:22:00,33.0,13.0,-100.00,West,270,9.0,19.0,42,-99.99,,,-99.99,,2013-03-21 11:22:00,
2013-03-21 07:33:00,33.0,12.0,-100.00,West,270,10.0,16.0,41,-99.99,,,-99.99,,2013-03-21 11:33:00,
2013-03-21 07:43:00,33.0,12.0,-100.00,West,280,10.0,16.0,40,-99.99,,,-99.99,,2013-03-21 11:43:00,
2013-03-21 07:52:00,33.0,11.0,-100.00,West,275,9.0,14.0,40,-99.99,,,-99.99,,2013-03-21 11:52:00,
2013-03-21 08:03:00,33.0,11.0,-100.00,West,265,8.0,14.0,40,-99.99,,,-99.99,,2013-03-21 12:03:00,
2013-03-21 08:12:00,33.0,10.0,-100.00,West,270,9.0,14.0,39,-99.99,,,-99.99,,2013-03-21 12:12:00,
2013-03-21 08:22:00,33.0,11.0,-100.00,West,280,9.0,12.0,39,-99.99,,,-99.99,,2013-03-21 12:22:00,
2013-03-21 08:33:00,33.0,11.0,-100.00,West,270,9.0,16.0,38,-99.99,,,-99.99,,2013-03-21 12:33:00,
2013-03-21 08:43:00,34.0,11.0,-100.00,WNW,285,9.0,13.0,38,-99.99,,,-99.99,,2013-03-21 12:43:00,
2013-03-21 08:52:00,34.0,11.0,-100.00,West,270,9.0,13.0,37,-99.99,,,-99.99,,2013-03-21 12:52:00,
2013-03-21 09:03:00,35.0,11.0,-100.00,West,260,6.0,13.0,36,-99.99,,,-99.99,,2013-03-21 13:03:00,
2013-03-21 09:12:00,36.0,12.0,-100.00,WSW,245,4.0,8.0,36,-99.99,,,-99.99,,2013-03-21 13:12:00,
2013-03-21 09:22:00,36.0,11.0,-100.00,West,275,5.0,10.0,35,-99.99,,,-99.99,,2013-03-21 13:22:00,
2013-03-21 09:32:00,36.0,10.0,-100.00,West,280,8.0,10.0,34,-99.99,,,-99.99,,2013-03-21 13:32:00,
2013-03-21 09:42:00,36.0,11.0,-100.00,WNW,300,7.0,13.0,34,-99.99,,,-99.99,,2013-03-21 13:42:00,
2013-03-21 09:52:00,37.0,11.0,-100.00,West,275,8.0,14.0,34,-99.99,,,-99.99,,2013-03-21 13:52:00,
2013-03-21 10:02:00,38.0,11.0,-100.00,WSW,255,10.0,15.0,33,-99.99,,,-99.99,,2013-03-21 14:02:00,
2013-03-21 10:12:00,37.0,10.0,-100.00,WNW,295,11.0,14.0,33,-99.99,,,-99.99,,2013-03-21 14:12:00,
2013-03-21 10:22:00,38.0,11.0,-100.00,WNW,285,9.0,15.0,33,-99.99,,,-99.99,,2013-03-21 14:22:00,
2013-03-21 10:32:00,38.0,10.0,-100.00,WNW,300,9.0,13.0,31,-99.99,,,-99.99,,2013-03-21 14:32:00,
2013-03-21 10:42:00,38.0,11.0,-100.00,NNW,340,9.0,15.0,31,-99.99,,,-99.99,,2013-03-21 14:42:00,
2013-03-21 10:52:00,39.0,11.0,-100.00,West,260,10.0,21.0,31,-99.99,,,-99.99,,2013-03-21 14:52:00,
2013-03-21 11:04:00,39.0,11.0,-100.00,West,280,10.0,18.0,31,-99.99,,,-99.99,,2013-03-21 15:04:00,
2013-03-21 11:12:00,41.0,12.0,-100.00,WSW,255,6.0,15.0,30,-99.99,,,-99.99,,2013-03-21 15:12:00,
2013-03-21 11:22:00,42.0,12.0,-100.00,West,280,10.0,14.0,29,-99.99,,,-99.99,,2013-03-21 15:22:00,
2013-03-21 11:33:00,42.0,12.0,-100.00,West,270,9.0,14.0,29,-99.99,,,-99.99,,2013-03-21 15:33:00,
2013-03-21 11:42:00,40.0,11.0,-100.00,WNW,290,9.0,17.0,29,-99.99,,,-99.99,,2013-03-21 15:42:00,
2013-03-21 11:53:00,41.0,11.0,-100.00,WNW,295,11.0,19.0,28,-99.99,,,-99.99,,2013-03-21 15:53:00,
2013-03-21 12:03:00,42.0,11.0,-100.00,WNW,285,8.0,16.0,28,-99.99,,,-99.99,,2013-03-21 16:03:00,
2013-03-21 12:12:00,44.0,12.0,-100.00,WSW,255,10.0,18.0,27,-99.99,,,-99.99,,2013-03-21 16:12:00,
2013-03-21 12:23:00,44.0,12.0,-100.00,SW,225,9.0,21.0,27,-99.99,,,-99.99,,2013-03-21 16:23:00,
2013-03-21 12:33:00,43.0,12.0,-100.00,WNW,285,7.0,21.0,27,-99.99,,,-99.99,,2013-03-21 16:33:00,
2013-03-21 12:42:00,42.0,11.0,-100.00,WNW,300,11.0,18.0,27,-99.99,,,-99.99,,2013-03-21 16:42:00,
2013-03-21 12:52:00,44.0,11.0,-100.00,West,265,11.0,22.0,26,-99.99,,,-99.99,,2013-03-21 16:52:00,
2013-03-21 13:03:00,45.0,12.0,-100.00,West,270,9.0,15.0,26,-99.99,,,-99.99,,2013-03-21 17:03:00,
2013-03-21 13:12:00,44.0,11.0,-100.00,West,265,13.0,20.0,26,-99.99,,,-99.99,,2013-03-21 17:12:00,
2013-03-21 13:23:00,45.0,12.0,-100.00,NW,325,6.0,23.0,26,-99.99,,,-99.99,,2013-03-21 17:23:00,
2013-03-21 13:33:00,45.0,12.0,-100.00,WSW,250,13.0,25.0,26,-99.99,,,-99.99,,2013-03-21 17:33:00,
2013-03-21 13:43:00,44.0,12.0,-100.00,WNW,295,9.0,21.0,26,-99.99,,,-99.99,,2013-03-21 17:43:00,
2013-03-21 13:52:00,45.0,13.0,-100.00,West,265,14.0,24.0,26,-99.99,,,-99.99,,2013-03-21 17:52:00,
2013-03-21 14:02:00,48.0,15.0,-100.00,West,260,8.0,19.0,26,-99.99,,,-99.99,,2013-03-21 18:02:00,
2013-03-21 14:12:00,47.0,14.0,-100.00,West,265,10.0,24.0,26,-99.99,,,-99.99,,2013-03-21 18:12:00,
2013-03-21 14:23:00,46.0,13.0,-100.00,NW,315,13.0,24.0,26,-99.99,,,-99.99,,2013-03-21 18:23:00,
2013-03-21 14:32:00,47.0,14.0,-100.00,West,280,18.0,26.0,26,-99.99,,,-99.99,,2013-03-21 18:32:00,
2013-03-21 14:42:00,49.0,15.0,-100.00,WSW,240,11.0,26.0,26,-99.99,,,-99.99,,2013-03-21 18:42:00,
2013-03-21 14:52:00,48.0,14.0,-100.00,West,280,16.0,24.0,26,-99.99,,,-99.99,,2013-03-21 18:52:00,
2013-03-21 15:02:00,49.0,16.0,-100.00,WNW,285,14.0,27.0,26,-99.99,,,-99.99,,2013-03-21 19:02:00,
2013-03-21 15:12:00,50.0,16.0,-100.00,WSW,240,12.0,24.0,26,-99.99,,,-99.99,,2013-03-21 19:12:00,
2013-03-21 15:22:00,49.0,16.0,-100.00,WSW,250,14.0,23.0,26,-99.99,,,-99.99,,2013-03-21 19:22:00,
2013-03-21 15:32:00,51.0,17.0,-100.00,SW,235,8.0,24.0,26,-99.99,,,-99.99,,2013-03-21 19:32:00,
2013-03-21 15:43:00,49.0,15.0,-100.00,NW,305,15.0,28.0,25,-99.99,,,-99.99,,2013-03-21 19:43:00,
2013-03-21 15:52:00,50.0,16.0,-100.00,WSW,255,16.0,25.0,25,-99.99,,,-99.99,,2013-03-21 19:52:00,
2013-03-21 16:02:00,50.0,16.0,-100.00,WNW,300,11.0,26.0,25,-99.99,,,-99.99,,2013-03-21 20:02:00,
2013-03-21 16:13:00,49.0,15.0,-100.00,NW,325,15.0,27.0,25,-99.99,,,-99.99,,2013-03-21 20:13:00,
2013-03-21 16:23:00,50.0,16.0,-100.00,West,265,13.0,24.0,25,-99.99,,,-99.99,,2013-03-21 20:23:00,
2013-03-21 16:33:00,50.0,16.0,-100.00,West,265,13.0,24.0,25,-99.99,,,-99.99,,2013-03-21 20:33:00,
2013-03-21 16:42:00,51.0,16.0,-100.00,West,280,13.0,29.0,25,-99.99,,,-99.99,,2013-03-21 20:42:00,
2013-03-21 16:53:00,50.0,15.0,-100.00,WNW,295,14.0,20.0,25,-99.99,,,-99.99,,2013-03-21 20:53:00,
2013-03-21 17:03:00,50.0,15.0,-100.00,WNW,300,15.0,22.0,25,-99.99,,,-99.99,,2013-03-21 21:03:00,
2013-03-21 17:12:00,51.0,17.0,-100.00,West,280,10.0,19.0,25,-99.99,,,-99.99,,2013-03-21 21:12:00,
2013-03-21 17:23:00,51.0,16.0,-100.00,West,275,14.0,22.0,25,-99.99,,,-99.99,,2013-03-21 21:23:00,
2013-03-21 17:33:00,51.0,16.0,-100.00,West,275,14.0,22.0,25,-99.99,,,-99.99,,2013-03-21 21:33:00,
2013-03-21 17:43:00,50.0,15.0,-100.00,West,275,14.0,26.0,24,-99.99,,,-99.99,,2013-03-21 21:43:00,
2013-03-21 17:53:00,49.0,14.0,-100.00,WNW,290,16.0,23.0,24,-99.99,,,-99.99,,2013-03-21 21:53:00,
2013-03-21 18:03:00,50.0,15.0,-100.00,West,275,13.0,24.0,24,-99.99,,,-99.99,,2013-03-21 22:03:00,
2013-03-21 18:13:00,49.0,14.0,-100.00,West,280,15.0,22.0,24,-99.99,,,-99.99,,2013-03-21 22:13:00,
2013-03-21 18:23:00,49.0,14.0,-100.00,WNW,290,13.0,22.0,24,-99.99,,,-99.99,,2013-03-21 22:23:00,
2013-03-21 18:33:00,49.0,14.0,-100.00,WNW,285,14.0,27.0,24,-99.99,,,-99.99,,2013-03-21 22:33:00,
2013-03-21 18:42:00,49.0,14.0,-100.00,NW,310,8.0,24.0,24,-99.99,,,-99.99,,2013-03-21 22:42:00,
2013-03-21 18:52:00,49.0,13.0,-100.00,WNW,295,10.0,21.0,24,-99.99,,,-99.99,,2013-03-21 22:52:00,
2013-03-21 19:02:00,47.0,13.0,-100.00,WNW,295,14.0,24.0,24,-99.99,,,-99.99,,2013-03-21 23:02:00,
2013-03-21 19:12:00,47.0,12.0,-100.00,NW,305,9.0,21.0,24,-99.99,,,-99.99,,2013-03-21 23:12:00,
2013-03-21 19:22:00,47.0,12.0,-100.00,WNW,295,8.0,19.0,24,-99.99,,,-99.99,,2013-03-21 23:22:00,
2013-03-21 19:33:00,46.0,13.0,-100.00,WNW,290,8.0,14.0,25,-99.99,,,-99.99,,2013-03-21 23:33:00,
2013-03-21 19:43:00,46.0,12.0,-100.00,WNW,295,9.0,15.0,25,-99.99,,,-99.99,,2013-03-21 23:43:00,
2013-03-21 19:52:00,45.0,12.0,-100.00,WNW,285,8.0,14.0,25,-99.99,,,-99.99,,2013-03-21 23:52:00,
2013-03-21 20:03:00,45.0,11.0,-100.00,WNW,285,9.0,15.0,25,-99.99,,,-99.99,,2013-03-22 00:03:00,
2013-03-21 20:22:00,44.0,11.0,-100.00,WNW,285,5.0,14.0,26,-99.99,,,-99.99,,2013-03-22 00:22:00,
2013-03-21 20:32:00,44.0,11.0,-100.00,WNW,285,5.0,14.0,26,-99.99,,,-99.99,,2013-03-22 00:32:00,
2013-03-21 20:42:00,43.0,11.0,-100.00,West,280,8.0,11.0,27,-99.99,,,-99.99,,2013-03-22 00:42:00,
2013-03-21 20:52:00,42.0,11.0,-100.00,West,280,5.0,9.0,27,-99.99,,,-99.99,,2013-03-22 00:52:00,
2013-03-21 21:03:00,42.0,10.0,-100.00,WNW,290,6.0,8.0,27,-99.99,,,-99.99,,2013-03-22 01:03:00,
2013-03-21 21:12:00,41.0,10.0,-100.00,WNW,285,6.0,11.0,27,-99.99,,,-99.99,,2013-03-22 01:12:00,
2013-03-21 21:22:00,41.0,10.0,-100.00,WSW,250,5.0,8.0,28,-99.99,,,-99.99,,2013-03-22 01:22:00,
2013-03-21 21:32:00,41.0,11.0,-100.00,West,275,4.0,6.0,29,-99.99,,,-99.99,,2013-03-22 01:32:00,
2013-03-21 21:43:00,40.0,11.0,-100.00,WNW,285,6.0,7.0,29,-99.99,,,-99.99,,2013-03-22 01:43:00,
2013-03-21 21:53:00,40.0,10.0,-100.00,WSW,255,4.0,7.0,29,-99.99,,,-99.99,,2013-03-22 01:53:00,
2013-03-21 22:03:00,40.0,10.0,-100.00,NW,310,4.0,6.0,29,-99.99,,,-99.99,,2013-03-22 02:03:00,
2013-03-21 22:12:00,39.0,10.0,-100.00,West,265,4.0,7.0,30,-99.99,,,-99.99,,2013-03-22 02:12:00,
2013-03-21 22:22:00,39.0,10.0,-100.00,WNW,295,4.0,6.0,30,-99.99,,,-99.99,,2013-03-22 02:22:00,
2013-03-21 22:32:00,38.0,10.0,-100.00,North,10,0.0,4.0,31,-99.99,,,-99.99,,2013-03-22 02:32:00,
2013-03-21 22:43:00,39.0,11.0,-100.00,NW,310,4.0,4.0,31,-99.99,,,-99.99,,2013-03-22 02:43:00,
2013-03-21 22:52:00,39.0,11.0,-100.00,WNW,285,4.0,5.0,31,-99.99,,,-99.99,,2013-03-22 02:52:00,
2013-03-21 23:02:00,39.0,11.0,-100.00,NW,315,2.0,6.0,31,-99.99,,,-99.99,,2013-03-22 03:02:00,
2013-03-21 23:12:00,36.0,10.0,-100.00,ENE,60,1.0,3.0,33,-99.99,,,-99.99,,2013-03-22 03:12:00,
2013-03-21 23:22:00,37.0,11.0,-100.00,West,275,1.0,4.0,33,-99.99,,,-99.99,,2013-03-22 03:22:00,
2013-03-21 23:33:00,37.0,11.0,-100.00,ENE,70,1.0,4.0,33,-99.99,,,-99.99,,2013-03-22 03:33:00,
2013-03-21 23:43:00,36.0,11.0,-100.00,NE,50,1.0,4.0,35,-99.99,,,-99.99,,2013-03-22 03:43:00,
2013-03-21 23:53:00,36.0,12.0,-100.00,East,80,4.0,4.0,36,-99.99,,,-99.99,,2013-03-22 03:53:00,